Regional Weather Roundup
Issued by NWS Little Rock, AR

Home | Current Version | Previous Version | Text Only | Print | Product List | Glossary On
Versions: 1 2 3 4 5 6 7 8 9 10 11 12 13 14 15 16 17 18 19 20 21 22 23 24 25 26 27 28 29 30 31 32 33 34 35 36 37 38 39 40 41 42 43 44 45 46 47 48 49 50
000
ASUS44 KLZK 292105
RWRLZK

WEATHER ROUNDUP FOR ARKANSAS
NATIONAL WEATHER SERVICE LITTLE ROCK AR
400 PM CDT TUE JUL 29 2014

NOTE: "FAIR" INDICATES FEW OR NO CLOUDS BELOW 12,000 FEET WITH NO
SIGNIFICANT WEATHER AND/OR OBSTRUCTIONS TO VISIBILITY.

ARZ001-003-010-029-292200-
NORTHWEST ARKANSAS

CITY           SKY/WX    TMP DP  RH WIND       PRES   REMARKS
FAYETTEVILLE   PTSUNNY   83  61  47 W6        30.14F
FORT SMITH     PTSUNNY   87  60  40 N5        30.10F HX  87
HARRISON       SUNNY     82  55  39 VRB3      30.15F
BENTONVILLE    MOSUNNY   82  59  44 NW6       30.16F
ROGERS         MOSUNNY   83  58  42 NW9       30.16F
SILOAM SPGS    SUNNY     82  57  42 NW10      30.16S
HIGHFILL       PTSUNNY   83  60  45 NW8       30.15F
SPRINGDALE     PTSUNNY   82  59  44 W8        30.16F
$$

ARZ004-005-016-292200-
NORTH CENTRAL ARKANSAS

CITY           SKY/WX    TMP DP  RH WIND       PRES   REMARKS
BATESVILLE     SUNNY     82  57  42 N6        30.12F
FLIPPIN        SUNNY     81  54  39 N6        30.14S
MTN HOME       CLOUDY    78  58  49 SE5       30.13F
$$

ARZ040-041-292200-
WEST CENTRAL ARKANSAS

CITY           SKY/WX    TMP DP  RH WIND       PRES   REMARKS
MENA           SUNNY     88  63  42 CALM      30.13F HX  88
MOUNT IDA      MOSUNNY   83  65  54 CALM      30.10F HX  85
$$

ARZ009-017-025-026-028-292200-
NORTHEAST ARKANSAS

CITY           SKY/WX    TMP DP  RH WIND       PRES   REMARKS
CORNING        FAIR      79  57  47 E5        30.13F
JONESBORO      SUNNY     79  56  45 N5        30.12F
NEWPORT        MOSUNNY   79  58  48 VRB7      30.14F
WALNUT RIDGE   SUNNY     79  57  47 NE5       30.12F
BLYTHEVILLE    PTSUNNY   79  57  46 NE7       30.13S
NW BLYTHEVILLE MOSUNNY   81  57  44 N9        30.13S
$$

ARZ022-023-033-042-044-292200-
CENTRAL ARKANSAS

CITY           SKY/WX    TMP DP  RH WIND       PRES   REMARKS
LITTLE ROCK    MOSUNNY   85  56  37 N12       30.11F
N LITTLE ROCK  MOSUNNY   81  61  49 NW3       30.11F
JACKSONVILLE   MOSUNNY   83  60  45 N8        30.12F
SEARCY         SUNNY     82  60  47 NW5       30.13F
HOT SPRINGS    PTSUNNY   82  62  50 VRB3      30.11F
RUSSELLVILLE   SUNNY     84  61  45 VRB3      30.11F
CLINTON        PTSUNNY   82  61  47 CALM      30.13S
$$

ARZ036-292200-
EAST ARKANSAS

CITY           SKY/WX    TMP DP  RH WIND       PRES   REMARKS
WEST MEMPHIS   MOSUNNY   80  57  45 NW7G20    30.11S
$$

ARZ050-053-066-070-073-292200-
SOUTHWEST ARKANSAS

CITY           SKY/WX    TMP DP  RH WIND       PRES   REMARKS
ARKADELPHIA    MOCLDY    86  65  49 E5        30.10F HX  88
CAMDEN         SUNNY     86  63  45 N5        30.09S HX  87
TEXARKANA      SUNNY     87  61  41 NE8       30.09F HX  87
EL DORADO      SUNNY     85  63  47 NE9       30.09F HX  86
DE QUEEN       SUNNY     88  67  49 MISG      30.07F HX  91
$$

ARZ056-057-069-292200-
SOUTHEAST ARKANSAS

CITY           SKY/WX    TMP DP  RH WIND       PRES   REMARKS
PINE BLUFF     SUNNY     82  58  43 N8        30.11F
STUTTGART      SUNNY     81  59  47 N8        30.13S
MONTICELLO     MOSUNNY   85  60  42 NE6       30.09F HX  85

$$





USA.gov is the U.S. government's official web portal to all federal, state and local government web resources and services.